Location: Les Coudrans
(46.1056°N, 1.1158°W)
Time: 17:17:39
(UTC+00:00)

Cosmos 1821 Rocket - Pass Details

Date: 03 March 2021
Orbit: 945 x 1005 km, 82.9° (Epoch: 14 April)

Event Time Altitude Azimuth Distance (km) Brightness Sun altitude
Exits shadow 20:42:00 48° 27° (NNE) 1,257 4.4 -29.4°
Drops below altitude 10° 20:46:22 10° 12° (NNE) 2,705 6.4 -30.1°
Sets 20:48:52 0° 11° (N) 3,648 7.2 -30.5°
